GW4718 Weather Reports


Display with metric or nautical units.
time (UTC)temp
F
wind
direction
speed
MPH
gust
MPH
rain 1hr
in
rain 24hr
in
rain mn
in
humidity
%
barometer
mb
20260901205412 83 37 3.0 6.0 0.00 0.00 0.00 69 1021.6
20260901204908 84 59 0.0 1.0 0.00 0.00 0.00 66 1021.8
20260901204404 85 353 2.0 4.0 0.00 0.00 0.00 65 1021.7
20260901203903 86 16 2.0 3.0 0.00 0.00 0.00 63 1021.7
20260901203358 85 28 1.0 1.0 0.00 0.00 0.00 65 1021.7
20260901202853 85 71 1.0 6.0 0.00 0.00 0.00 64 1021.7
20260901202348 86 10 2.0 8.0 0.00 0.00 0.00 64 1021.6
20260901201844 85 352 2.0 2.0 0.00 0.00 0.00 63 1021.7
20260901201344 84 35 3.0 4.0 0.00 0.00 0.00 66 1021.7
20260901200838 84 71 2.0 2.0 0.00 0.00 0.00 66 1021.9
20260901200333 83 173 4.0 6.0 0.00 0.00 0.00 67 1022.1
20260901195832 83 100 2.0 4.0 0.00 0.00 0.00 74 1022.3
20260901195330 83 50 0.0 0.0 0.00 0.00 0.00 73 1022.3
20260901194826 82 69 1.0 1.0 0.00 0.00 0.00 74 1022.1
20260901194320 82 14 0.0 1.0 0.00 0.00 0.00 70 1022.2
20260901193817 82 119 3.0 4.0 0.00 0.00 0.00 73 1022.4
20260901193315 83 90 1.0 2.0 0.00 0.00 0.00 70 1022.5
20260901192810 83 78 4.0 4.0 0.00 0.00 0.00 68 1022.5
20260901192306 84 80 1.0 3.0 0.00 0.00 0.00 69 1022.8
20260901191801 84 125 3.0 7.0 0.00 0.00 0.00 63 1022.9
20260901191252 84 35 2.0 4.0 0.00 0.00 0.00 64 1022.9
20260901190747 85 282 1.0 3.0 0.00 0.00 0.00 63 1022.9
20260901190241 85 286 1.0 3.0 0.00 0.00 0.00 63 1022.9
20260901185740 84 10 0.0 2.0 0.00 0.00 0.00 63 1023.1
20260901185238 85 31 6.0 7.0 0.00 0.00 0.00 63 1023.1
20260901184734 85 285 0.0 3.0 0.00 0.00 0.00 61 1023.1
20260901184230 85 287 1.0 8.0 0.00 0.00 0.00 59 1023.1
20260901183725 85 297 5.0 6.0 0.00 0.00 0.00 61 1023.4
20260901183225 85 348 2.0 4.0 0.00 0.00 0.00 62 1023.4
20260901182721 85 147 3.0 9.0 0.00 0.00 0.00 59 1023.3
20260901182214 85 120 4.0 11.0 0.00 0.00 0.00 62 1023.5
20260901181709 86 254 2.0 7.0 0.00 0.00 0.00 62 1023.6
20260901181203 85 295 3.0 4.0 0.00 0.00 0.00 61 1023.6
20260901180657 86 72 3.0 6.0 0.00 0.00 0.00 56 1023.2
20260901180151 87 276 2.0 3.0 0.00 0.00 0.00 59 1023.5
20260901175650 85 46 0.0 1.0 0.00 0.00 0.00 63 1023.5
20260901175150 85 283 0.0 0.0 0.00 0.00 0.00 61 1023.5
20260901174646 85 351 1.0 2.0 0.00 0.00 0.00 62 1023.5
20260901174142 85 290 4.0 6.0 0.00 0.00 0.00 65 1023.7
20260901173637 86 225 1.0 2.0 0.00 0.00 0.00 61 1023.6
20260901173132 87 287 1.0 3.0 0.00 0.00 0.00 57 1023.2
20260901172628 86 244 3.0 6.0 0.00 0.00 0.00 61 1023.4
20260901172126 86 276 3.0 4.0 0.00 0.00 0.00 60 1023.2
20260901171625 87 302 2.0 4.0 0.00 0.00 0.00 58 1023.4
20260901171120 86 3 0.0 2.0 0.00 0.00 0.00 61 1023.2
20260901170619 86 209 6.0 7.0 0.00 0.00 0.00 63 1023.2
20260901170114 86 256 3.0 9.0 0.00 0.00 0.00 64 1023.2
20260901165613 86 267 1.0 4.0 0.00 0.00 0.00 62 1023.1
20260901165109 85 22 5.0 6.0 0.00 0.00 0.00 64 1023.0
20260901164604 85 31 2.0 3.0 0.00 0.00 0.00 66 1023.0
20260901164059 84 78 0.0 6.0 0.00 0.00 0.00 65 1023.1
20260901163554 83 356 0.0 7.0 0.00 0.00 0.00 66 1023.1
20260901163054 83 55 6.0 8.0 0.00 0.00 0.00 66 1022.8
20260901162549 83 70 2.0 2.0 0.00 0.00 0.00 71 1023.0
20260901162049 82 88 2.0 3.0 0.00 0.00 0.00 68 1023.1
20260901161547 83 27 3.0 4.0 0.00 0.00 0.00 68 1023.1
20260901161047 83 93 3.0 6.0 0.00 0.00 0.00 69 1023.1
20260901160543 83 42 4.0 4.0 0.00 0.00 0.00 70 1023.0
20260901160033 83 281 3.0 4.0 0.00 0.00 0.00 66 1023.1
20260901155531 83 98 4.0 6.0 0.00 0.00 0.00 70 1023.0
20260901155027 83 145 1.0 2.0 0.00 0.00 0.00 76 1023.1
20260901154527 83 77 0.0 1.0 0.00 0.00 0.00 68 1023.1
20260901154022 82 81 3.0 4.0 0.00 0.00 0.00 74 1023.2
20260901153516 82 116 6.0 8.0 0.00 0.00 0.00 70 1023.1
20260901153010 82 100 1.0 1.0 0.00 0.00 0.00 69 1023.2
20260901152505 82 62 1.0 4.0 0.00 0.00 0.00 72 1023.5
20260901152004 82 50 6.0 7.0 0.00 0.00 0.00 74 1023.4
20260901151500 82 26 2.0 3.0 0.00 0.00 0.00 74 1023.2
20260901150959 82 63 2.0 3.0 0.00 0.00 0.00 74 1023.3
20260901150457 83 38 0.0 3.0 0.00 0.00 0.00 71 1023.4
20260901145954 82 152 0.0 2.0 0.00 0.00 0.00 71 1023.4
20260901145449 82 67 2.0 6.0 0.00 0.00 0.00 73 1023.5
20260901144949 82 109 2.0 2.0 0.00 0.00 0.00 75 1023.4
20260901144444 81 352 1.0 1.0 0.00 0.00 0.00 75 1023.6
20260901143940 82 80 1.0 3.0 0.00 0.00 0.00 75 1023.5
20260901143436 81 17 0.0 6.0 0.00 0.00 0.00 75 1023.5
20260901142932 82 41 1.0 2.0 0.00 0.00 0.00 74 1023.7
20260901142432 82 48 3.0 4.0 0.00 0.00 0.00 77 1023.7
20260901141926 81 23 1.0 2.0 0.00 0.00 0.00 78 1023.7
20260901141421 80 326 0.0 4.0 0.00 0.00 0.00 80 1023.9
20260901140916 78 74 4.0 4.0 0.00 0.00 0.00 86 1023.7
20260901140414 77 77 4.0 6.0 0.00 0.00 0.00 81 1023.9
20260901135908 77 52 2.0 3.0 0.00 0.00 0.00 86 1023.9
20260901135404 78 283 2.0 3.0 0.00 0.00 0.00 87 1024.0
20260901134900 75 84 4.0 4.0 0.00 0.00 0.00 91 1024.0
20260901134355 75 155 0.0 1.0 0.00 0.00 0.00 89 1024.0
20260901133855 75 142 0.0 2.0 0.00 0.00 0.00 88 1024.1
20260901133354 75 77 1.0 2.0 0.00 0.00 0.00 89 1024.0
20260901132852 74 245 0.0 1.0 0.00 0.00 0.00 90 1023.9
20260901132348 73 114 3.0 4.0 0.00 0.00 0.00 91 1023.9
20260901131846 73 57 4.0 4.0 0.00 0.00 0.00 90 1023.9
20260901131346 73 287 1.0 2.0 0.00 0.00 0.00 91 1023.9
20260901130842 73 200 0.0 0.0 0.00 0.00 0.00 91 1023.7
20260901130337 73 357 0.0 1.0 0.00 0.00 0.00 92 1024.0
20260901125834 73 54 2.0 2.0 0.00 0.00 0.00 92 1024.0
20260901125334 72 142 0.0 2.0 0.00 0.00 0.00 92 1023.9
20260901124829 72 180 5.0 8.0 0.00 0.00 0.00 91 1023.9
20260901124324 72 186 2.0 3.0 0.00 0.00 0.00 92 1024.1
20260901123823 71 202 4.0 6.0 0.00 0.00 0.00 92 1024.0
20260901123319 71 237 0.0 3.0 0.00 0.00 0.00 92 1024.0
20260901122817 71 218 2.0 4.0 0.00 0.00 0.00 93 1024.1
20260901122312 71 209 2.0 6.0 0.00 0.00 0.00 93 1024.1
20260901121811 70 259 1.0 2.0 0.00 0.00 0.00 94 1023.9
20260901121306 70 208 0.0 3.0 0.00 0.00 0.00 94 1024.1
20260901120801 69 216 1.0 2.0 0.00 0.00 0.00 95 1023.9
20260901120301 69 72 0.0 1.0 0.00 0.00 0.00 95 1023.9
20260901115756 69 163 2.0 3.0 0.00 0.00 0.00 95 1024.0
20260901115252 69 242 3.0 4.0 0.00 0.00 0.00 95 1024.0
20260901114749 69 265 1.0 2.0 0.00 0.00 0.00 95 1024.0
20260901114244 69 192 1.0 7.0 0.00 0.00 0.00 96 1023.7
20260901113743 68 234 5.0 6.0 0.00 0.00 0.00 97 1023.7
20260901113238 68 230 2.0 6.0 0.00 0.00 0.00 97 1023.6
20260901112737 68 125 0.0 1.0 0.00 0.00 0.00 98 1023.6
20260901112231 68 55 0.0 1.0 0.00 0.00 0.00 99 1023.9
20260901111726 67 68 0.0 0.0 0.00 0.00 0.00 99 1023.7
20260901111226 67 78 0.0 0.0 0.00 0.00 0.00 99 1023.6
20260901110719 67 34 0.0 1.0 0.00 0.00 0.00 99 1023.5
20260901110215 66 88 1.0 2.0 0.00 0.00 0.00 99 1023.5
20260901105712 66 90 0.0 2.0 0.00 0.00 0.00 99 1023.6
20260901105211 66 227 0.0 0.0 0.00 0.00 0.00 99 1023.5
20260901104707 66 53 2.0 3.0 0.00 0.00 0.00 99 1023.6
20260901104202 66 66 0.0 1.0 0.00 0.00 0.00 99 1023.6
20260901103701 66 70 0.0 1.0 0.00 0.00 0.00 99 1023.5
20260901103157 66 75 0.0 0.0 0.00 0.00 0.00 99 1023.2
20260901102652 66 46 1.0 1.0 0.00 0.00 0.00 99 1023.4
20260901102151 66 352 0.0 1.0 0.00 0.00 0.00 99 1023.3
20260901101648 66 130 0.0 1.0 0.00 0.00 0.00 99 1023.3
20260901101146 66 58 0.0 2.0 0.00 0.00 0.00 99 1023.3
20260901100640 66 41 0.0 1.0 0.00 0.00 0.00 99 1023.3
20260901100136 66 216 0.0 0.0 0.00 0.00 0.00 99 1023.3
20260901095633 65 89 1.0 1.0 0.00 0.00 0.00 99 1023.3
20260901095131 66 66 1.0 1.0 0.00 0.00 0.00 99 1023.3
20260901094626 66 95 0.0 0.0 0.00 0.00 0.00 99 1023.4
20260901094121 66 44 0.0 0.0 0.00 0.00 0.00 99 1023.4
20260901093615 66 101 0.0 0.0 0.00 0.00 0.00 99 1023.3
20260901093109 66 101 0.0 2.0 0.00 0.00 0.00 99 1023.5
20260901092606 66 323 0.0 0.0 0.00 0.00 0.00 99 1023.4
20260901092102 66 211 0.0 0.0 0.00 0.00 0.00 99 1023.4
20260901091557 66 105 0.0 0.0 0.00 0.00 0.00 99 1023.5
20260901091052 66 298 2.0 2.0 0.00 0.00 0.00 99 1023.3
20260901090551 66 86 0.0 1.0 0.00 0.00 0.00 99 1023.4
20260901090047 66 40 2.0 3.0 0.00 0.00 0.00 99 1023.4
20260901085542 66 37 0.0 1.0 0.00 0.00 0.00 99 1023.3
20260901085038 66 21 0.0 0.0 0.00 0.00 0.00 99 1023.3
20260901084534 66 31 0.0 1.0 0.00 0.00 0.00 99 1023.2
20260901084030 66 270 0.0 0.0 0.00 0.00 0.00 99 1023.2
20260901083529 66 108 0.0 1.0 0.00 0.00 0.00 99 1023.1
20260901083028 66 244 0.0 1.0 0.00 0.00 0.00 99 1023.3
20260901082523 65 126 1.0 2.0 0.00 0.00 0.00 99 1023.4
20260901082018 65 214 0.0 0.0 0.00 0.00 0.00 99 1023.5
20260901081513 65 279 1.0 3.0 0.00 0.00 0.00 99 1023.4
20260901081009 65 232 1.0 3.0 0.00 0.00 0.00 99 1023.4
20260901080508 65 190 0.0 2.0 0.00 0.00 0.00 99 1023.6
20260901080002 65 254 0.0 0.0 0.00 0.00 0.00 99 1023.4
20260901075458 65 256 0.0 0.0 0.00 0.00 0.00 99 1023.6
20260901074956 65 139 0.0 0.0 0.00 0.00 0.00 99 1023.5
20260901074451 65 126 0.0 1.0 0.00 0.00 0.00 99 1023.5
20260901073947 65 112 1.0 2.0 0.00 0.00 0.00 99 1023.6
20260901073443 65 135 0.0 1.0 0.00 0.00 0.00 99 1023.9
20260901072938 65 290 0.0 0.0 0.00 0.00 0.00 99 1023.6
20260901072437 65 285 0.0 0.0 0.00 0.00 0.00 99 1023.6
20260901071933 65 49 0.0 0.0 0.00 0.00 0.00 99 1023.5
20260901071432 65 47 1.0 2.0 0.00 0.00 0.00 99 1023.6
20260901070926 65 58 0.0 0.0 0.00 0.00 0.00 99 1023.6
20260901070422 65 84 2.0 2.0 0.00 0.00 0.00 99 1023.5
20260901065920 65 81 0.0 1.0 0.00 0.00 0.00 99 1023.6
20260901065416 65 5 0.0 0.0 0.00 0.00 0.00 99 1023.7
20260901064910 65 359 0.0 0.0 0.00 0.00 0.00 99 1023.6
20260901064406 66 33 0.0 2.0 0.00 0.00 0.00 98 1023.6
20260901063858 66 320 0.0 0.0 0.00 0.00 0.00 98 1023.6
20260901063354 66 282 0.0 0.0 0.00 0.00 0.00 98 1023.5
20260901062850 66 227 0.0 2.0 0.00 0.00 0.00 98 1023.6
20260901062346 66 135 0.0 2.0 0.00 0.00 0.00 98 1023.5
20260901061841 66 349 0.0 1.0 0.00 0.00 0.00 98 1023.5
20260901061336 66 76 1.0 1.0 0.00 0.00 0.00 99 1023.5
20260901060832 66 101 0.0 0.0 0.00 0.00 0.00 98 1023.7
20260901060327 66 110 0.0 1.0 0.00 0.00 0.00 98 1024.0
20260901055826 66 108 0.0 1.0 0.00 0.00 0.00 98 1024.1
20260901055323 66 111 0.0 0.0 0.00 0.00 0.00 97 1024.2
20260901054820 67 262 0.0 3.0 0.00 0.00 0.00 97 1024.2
20260901054316 67 257 2.0 2.0 0.00 0.00 0.00 97 1024.1
20260901053812 67 229 0.0 2.0 0.00 0.00 0.00 97 1024.2
20260901053307 67 251 1.0 2.0 0.00 0.00 0.00 97 1024.2
20260901052757 67 236 0.0 2.0 0.00 0.00 0.00 97 1024.1
20260901052253 67 213 1.0 2.0 0.00 0.00 0.00 97 1024.2
20260901051751 67 249 1.0 3.0 0.00 0.00 0.00 96 1024.2
20260901051246 67 177 3.0 6.0 0.00 0.00 0.00 96 1024.3
20260901050736 67 246 1.0 2.0 0.00 0.00 0.00 96 1024.2
20260901050231 67 148 0.0 2.0 0.00 0.00 0.00 96 1024.2
20260901045726 67 234 0.0 2.0 0.00 0.00 0.00 96 1024.2
20260901045221 67 235 1.0 2.0 0.00 0.00 0.00 96 1024.2
20260901044716 67 222 3.0 3.0 0.00 0.00 0.00 96 1024.2
20260901044214 68 230 1.0 3.0 0.00 0.00 0.00 95 1024.2
20260901043708 68 251 1.0 3.0 0.00 0.00 0.00 95 1024.3
20260901043203 68 238 2.0 3.0 0.00 0.00 0.00 95 1024.2
20260901042702 68 186 4.0 4.0 0.00 0.00 0.00 95 1024.4
20260901042157 69 229 0.0 1.0 0.00 0.00 0.00 94 1024.4
20260901041653 69 228 4.0 6.0 0.00 0.00 0.00 93 1024.4
20260901041152 69 175 1.0 3.0 0.00 0.00 0.00 93 1024.4
20260901040648 70 192 3.0 4.0 0.00 0.00 0.00 92 1024.4
20260901040141 70 212 1.0 6.0 0.00 0.00 0.00 92 1024.5
20260901035640 69 184 2.0 4.0 0.00 0.00 0.00 93 1024.5
20260901035138 69 248 2.0 3.0 0.00 0.00 0.00 94 1024.5
20260901034633 69 239 2.0 3.0 0.00 0.00 0.00 94 1024.6
20260901034133 69 249 2.0 2.0 0.00 0.00 0.00 94 1024.5
20260901033632 69 247 2.0 3.0 0.00 0.00 0.00 94 1024.5
20260901033132 69 220 2.0 2.0 0.00 0.00 0.00 95 1024.7
20260901032630 69 191 1.0 3.0 0.00 0.00 0.00 95 1024.7
20260901032125 69 191 1.0 3.0 0.00 0.00 0.00 96 1024.6
20260901031621 69 38 0.0 1.0 0.00 0.00 0.00 96 1024.6
20260901031117 68 142 2.0 2.0 0.00 0.00 0.00 97 1024.6
20260901030616 68 134 0.0 1.0 0.00 0.00 0.00 97 1024.5
20260901030111 68 338 0.0 1.0 0.00 0.00 0.00 97 1024.5
20260901025606 68 270 0.0 1.0 0.00 0.00 0.00 97 1024.7
20260901025100 68 100 0.0 0.0 0.00 0.00 0.00 97 1024.6
20260901024555 68 346 0.0 0.0 0.00 0.00 0.00 97 1024.5
20260901024054 68 238 0.0 2.0 0.00 0.00 0.00 96 1024.7
20260901023553 68 292 1.0 2.0 0.00 0.00 0.00 97 1024.8
20260901023048 68 260 0.0 1.0 0.00 0.00 0.00 97 1024.6
20260901022543 68 273 1.0 2.0 0.00 0.00 0.00 98 1024.7
20260901022039 68 233 1.0 2.0 0.00 0.00 0.00 98 1024.8
20260901021534 68 227 0.0 0.0 0.00 0.00 0.00 98 1024.7
20260901021030 68 182 0.0 0.0 0.00 0.00 0.00 98 1024.6
20260901020525 68 180 0.0 0.0 0.00 0.00 0.00 98 1024.7
20260901020020 68 173 0.0 0.0 0.00 0.00 0.00 98 1024.7
20260901015516 68 146 0.0 0.0 0.00 0.00 0.00 98 1024.6
20260901015015 68 139 0.0 0.0 0.00 0.00 0.00 97 1024.8
20260901014511 68 105 0.0 0.0 0.00 0.00 0.00 97 1024.7
20260901014007 69 105 0.0 0.0 0.00 0.00 0.00 97 1024.8
20260901013502 69 111 0.0 0.0 0.00 0.00 0.00 97 1024.5
20260901012958 69 111 0.0 0.0 0.00 0.00 0.00 97 1024.2
20260901012457 69 121 0.0 0.0 0.00 0.00 0.00 97 1024.2
20260901011953 69 113 0.0 0.0 0.00 0.00 0.00 96 1024.3
20260901011449 69 113 0.0 0.0 0.00 0.00 0.00 96 1024.0
20260901010946 69 113 0.0 0.0 0.00 0.00 0.00 95 1024.0
20260901010442 70 113 0.0 0.0 0.00 0.00 0.00 95 1023.7
20260901005941 70 121 0.0 0.0 0.00 0.00 0.00 95 1023.6
20260901005436 70 117 0.0 0.0 0.00 0.00 0.00 95 1023.5
20260901004931 70 83 1.0 1.0 0.00 0.00 0.00 94 1023.7
20260901004431 71 219 0.0 1.0 0.00 0.00 0.00 93 1023.5
20260901003925 71 100 1.0 2.0 0.00 0.00 0.00 93 1023.5
20260901003420 71 270 0.0 0.0 0.00 0.00 0.00 93 1023.5
20260901002918 72 98 1.0 2.0 0.00 0.00 0.00 91 1023.3
20260901002412 72 59 0.0 0.0 0.00 0.00 0.00 92 1023.5
20260901001907 72 81 0.0 0.0 0.00 0.00 0.00 92 1023.4
20260901001403 72 269 0.0 2.0 0.00 0.00 0.00 91 1023.4
20260901000858 73 128 0.0 0.0 0.00 0.00 0.00 92 1023.2
20260901000353 73 71 1.0 2.0 0.00 0.00 0.00 88 1023.1
20260831235851 73 147 0.0 0.0 0.00 0.00 0.00 92 1023.3
20260831235348 73 208 0.0 0.0 0.00 0.00 0.00 92 1023.4
20260831234842 73 102 0.0 0.0 0.00 0.00 0.00 91 1023.4
20260831234337 73 105 1.0 2.0 0.00 0.00 0.00 89 1023.1
20260831233832 73 78 1.0 1.0 0.00 0.00 0.00 90 1023.4
20260831233327 74 75 0.0 0.0 0.00 0.00 0.00 89 1023.3
20260831232822 74 220 0.0 1.0 0.00 0.00 0.00 87 1023.5
20260831232319 74 136 0.0 1.0 0.00 0.00 0.00 87 1023.5
20260831231815 75 243 1.0 1.0 0.00 0.00 0.00 86 1023.4
20260831231311 75 99 0.0 1.0 0.00 0.00 0.00 84 1023.5
20260831230806 76 175 0.0 2.0 0.00 0.00 0.00 83 1023.4
20260831230301 76 101 2.0 3.0 0.00 0.00 0.00 83 1023.5
20260831225800 77 114 2.0 2.0 0.00 0.00 0.00 84 1023.5
20260831225255 77 79 3.0 3.0 0.00 0.00 0.00 75 1023.3
20260831224750 77 127 0.0 0.0 0.00 0.00 0.00 82 1023.4
20260831224246 78 109 0.0 0.0 0.00 0.00 0.00 78 1023.5
20260831223740 79 45 1.0 2.0 0.00 0.00 0.00 70 1023.4
20260831223237 78 158 0.0 4.0 0.00 0.00 0.00 71 1023.4
20260831222733 79 116 3.0 3.0 0.00 0.00 0.00 72 1023.5
20260831222228 80 104 1.0 1.0 0.00 0.00 0.00 76 1023.6
20260831221724 80 115 0.0 1.0 0.00 0.00 0.00 69 1023.3
20260831221219 82 132 0.0 1.0 0.00 0.00 0.00 72 1023.4
20260831220714 83 156 0.0 2.0 0.00 0.00 0.00 63 1023.5
20260831220209 84 132 1.0 4.0 0.00 0.00 0.00 59 1023.3
20260831215704 87 254 2.0 3.0 0.00 0.00 0.00 60 1023.4
20260831215200 87 271 1.0 1.0 0.00 0.00 0.00 55 1023.5
20260831214657 87 281 0.0 0.0 0.00 0.00 0.00 52 1023.5
20260831214153 86 247 0.0 1.0 0.00 0.00 0.00 58 1023.5
20260831213648 86 159 3.0 3.0 0.00 0.00 0.00 58 1023.7
20260831213143 86 175 3.0 4.0 0.00 0.00 0.00 57 1023.9
20260831212640 86 191 3.0 6.0 0.00 0.00 0.00 61 1024.0
20260831212137 85 178 4.0 4.0 0.00 0.00 0.00 61 1023.5
20260831211635 87 280 2.0 3.0 0.00 0.00 0.00 58 1023.7
20260831211130 87 162 3.0 4.0 0.00 0.00 0.00 54 1023.5
20260831210625 86 191 1.0 2.0 0.00 0.00 0.00 56 1023.7
20260831210121 86 188 2.0 3.0 0.00 0.00 0.00 58 1023.9